KI5QWQ Weather Reports


time (UTC)temp
C
wind
direction
speed
KPH
gust
KPH
rain 1hr
cm
rain 24hr
cm
rain mn
cm
humidity
%
barometer
mb
20260505125030 -17 199 4.8 6.4 0.00 0.00 0.00 1010.6
20260505124527 -17 248 1.6 4.8 0.00 0.00 0.00 1010.6
20260505124023 -17 212 0.0 8.0 0.00 0.00 0.00 1010.5
20260505123520 -17 178 1.6 4.8 0.00 0.00 0.00 1010.4
20260505123016 -17 254 3.2 6.4 0.00 0.00 0.00 1010.3
20260505122513 -17 204 1.6 8.0 0.00 0.00 0.00 1010.1
20260505122010 -17 185 3.2 12.9 0.00 0.00 0.00 1010.1
20260505121506 -17 191 3.2 4.8 0.00 0.00 0.00 1009.9
20260505121003 -17 216 3.2 6.4 0.00 0.00 0.00 1010.1
20260505120500 -17 212 3.2 8.0 0.00 0.00 0.00 1010.0
20260505115959 -17 197 1.6 4.8 0.00 0.00 0.00 1010.0
20260505115455 -17 174 1.6 6.4 0.00 0.00 0.00 1009.9
20260505114953 -17 212 1.6 8.0 0.00 0.00 0.00 1009.6
20260505114449 -17 175 0.0 4.8 0.00 0.00 0.00 1009.8
20260505113946 -17 199 4.8 11.3 0.00 0.00 0.00 1009.8
20260505113442 -17 185 1.6 4.8 0.00 0.00 0.00 1009.9
20260505112938 -17 256 0.0 6.4 0.00 0.00 0.00 1009.8
20260505112436 -17 212 3.2 4.8 0.00 0.00 0.00 1009.7
20260505111932 -17 214 4.8 12.9 0.00 0.00 0.00 1009.6
20260505111426 -17 239 1.6 6.4 0.00 0.00 0.00 1009.6
20260505110923 -17 154 1.6 9.7 0.00 0.00 0.00 1009.8
20260505110420 -17 179 3.2 6.4 0.00 0.00 0.00 1009.7
20260505101851 -17 222 1.6 9.7 0.00 0.00 0.00 1009.9
20260505101346 -17 186 0.0 8.0 0.00 0.00 0.00 1010.0
20260505100842 -17 193 3.2 4.8 0.00 0.00 0.00 1010.1
20260505100339 -17 187 3.2 9.7 0.00 0.00 0.00 1010.3
20260505095834 -17 170 1.6 6.4 0.00 0.00 0.00 1010.4
20260505095332 -17 216 3.2 6.4 0.00 0.00 0.00 1010.2
20260505094827 -17 236 1.6 3.2 0.00 0.00 0.00 1010.2
20260505094325 -17 148 1.6 8.0 0.00 0.00 0.00 1010.2
20260505093820 -17 189 3.2 4.8 0.00 0.00 0.00 1010.3
20260505093318 -17 222 4.8 6.4 0.00 0.00 0.00 1010.3
20260505092814 -17 215 1.6 4.8 0.00 0.00 0.00 1010.2
20260505092313 -17 218 0.0 11.3 0.00 0.00 0.00 1010.3
20260505091810 -17 207 0.0 4.8 0.00 0.00 0.00 1010.3
20260505091308 -17 184 3.2 4.8 0.00 0.00 0.00 1010.4
20260505090806 -17 230 0.0 12.9 0.00 0.00 0.00 1010.5
20260505090304 -17 180 0.0 4.8 0.00 0.00 0.00 1010.5
20260505085801 -17 170 3.2 6.4 0.00 0.00 0.00 1010.2
20260505085259 -17 123 1.6 8.0 0.00 0.00 0.00 1010.4
20260505084756 -17 200 1.6 4.8 0.00 0.00 0.00 1010.6
20260505084255 -17 175 3.2 4.8 0.00 0.00 0.00 1010.5
20260505083751 -17 212 0.0 4.8 0.00 0.00 0.00 1010.5
20260505083248 -17 200 3.2 6.4 0.00 0.00 0.00 1010.5
20260505082744 -17 195 1.6 6.4 0.00 0.00 0.00 1010.5
20260505082242 -17 222 1.6 9.7 0.00 0.00 0.00 1010.7
20260505081737 -17 261 1.6 14.5 0.00 0.00 0.00 1010.8
20260505081235 -17 292 3.2 6.4 0.00 0.00 0.00 1010.8
20260505080732 -17 172 6.4 20.9 0.00 0.00 0.00 1010.8
20260505080227 -17 232 3.2 6.4 0.00 0.00 0.00 1010.9
20260505075723 -17 223 3.2 6.4 0.00 0.00 0.00 1010.8
20260505075221 -17 184 1.6 4.8 0.00 0.00 0.00 1010.9
20260505074718 -17 195 3.2 9.7 0.00 0.00 0.00 1010.9
20260505074215 -17 221 0.0 8.0 0.00 0.00 0.00 1011.0
20260505073712 -17 182 6.4 12.9 0.00 0.00 0.00 1011.0
20260505073210 -17 211 1.6 4.8 0.00 0.00 0.00 1011.0
20260505072706 -17 208 4.8 8.0 0.00 0.00 0.00 1011.0
20260505072202 -17 205 4.8 6.4 0.00 0.00 0.00 1011.1
20260505071658 -17 227 1.6 11.3 0.00 0.00 0.00 1011.2
20260505071156 -17 213 3.2 8.0 0.00 0.00 0.00 1011.3
20260505070653 -17 184 1.6 4.8 0.00 0.00 0.00 1011.4
20260505070149 -17 217 1.6 6.4 0.00 0.00 0.00 1011.5
20260505065645 -17 195 1.6 8.0 0.00 0.00 0.00 1011.6
20260505065142 -17 239 3.2 8.0 0.00 0.00 0.00 1011.6
20260505064639 -17 217 3.2 12.9 0.00 0.00 0.00 1011.6
20260505064137 -17 221 1.6 8.0 0.00 0.00 0.00 1011.6
20260505063634 -17 246 3.2 8.0 0.00 0.00 0.00 1011.5
20260505063130 -17 151 4.8 9.7 0.00 0.00 0.00 1011.7
20260505062627 -17 28 1.6 9.7 0.00 0.00 0.00 1011.9
20260505062124 -17 180 1.6 20.9 0.00 0.00 0.00 1011.8
20260505061621 -17 156 0.0 4.8 0.00 0.00 0.00 1011.8
20260505061119 -17 199 0.0 4.8 0.00 0.00 0.00 1011.9
20260505060617 -17 180 1.6 14.5 0.00 0.00 0.00 1011.9
20260505060113 -17 190 3.2 16.1 0.00 0.00 0.00 1011.7
20260505055608 -17 216 3.2 4.8 0.00 0.00 0.00 1011.8
20260505055105 -17 242 1.6 4.8 0.00 0.00 0.00 1011.9
20260505054602 -17 207 3.2 4.8 0.00 0.00 0.00 1011.9
20260505054101 -17 184 3.2 6.4 0.00 0.00 0.00 1011.9
20260505053557 -17 198 3.2 4.8 0.00 0.00 0.00 1011.9
20260505053054 -17 119 4.8 9.7 0.00 0.00 0.00 1011.8
20260505052551 -17 207 1.6 9.7 0.00 0.00 0.00 1011.7
20260505052049 -17 219 0.0 17.7 0.00 0.00 0.00 1012.0
20260505051545 -17 172 1.6 8.0 0.00 0.00 0.00 1011.6
20260505051043 -17 180 3.2 6.4 0.00 0.00 0.00 1011.7
20260505050541 -17 203 0.0 9.7 0.00 0.00 0.00 1011.6
20260505041509 -17 180 4.8 12.9 0.00 0.00 0.00 1011.5
20260505041006 -17 200 4.8 8.0 0.00 0.00 0.00 1011.5
20260505040503 -17 211 1.6 4.8 0.00 0.00 0.00 1011.6
20260505040001 -17 165 1.6 3.2 0.00 0.00 0.00 1011.6
20260505035456 -17 186 0.0 4.8 0.00 0.00 0.00 1011.6
20260505034954 -17 217 1.6 6.4 0.00 0.00 0.00 1011.6
20260505034450 -17 222 4.8 4.8 0.00 0.00 0.00 1011.6
20260505033947 -17 173 4.8 12.9 0.00 0.00 0.00 1011.6
20260505033444 -17 211 3.2 8.0 0.00 0.00 0.00 1011.6
20260505032942 -17 168 3.2 6.4 0.00 0.00 0.00 1011.6
20260505032439 -17 199 1.6 12.9 0.00 0.00 0.00 1011.7
20260505031935 -17 207 4.8 9.7 0.00 0.00 0.00 1011.6
20260505031432 -17 217 0.0 9.7 0.00 0.00 0.00 1011.4
20260505030929 -17 197 4.8 12.9 0.00 0.00 0.00 1011.4
20260505030425 -17 319 1.6 6.4 0.00 0.00 0.00 1011.4
20260505025921 -17 175 4.8 8.0 0.00 0.00 0.00 1011.4
20260505025418 -17 165 1.6 11.3 0.00 0.00 0.00 1011.4
20260505024917 -17 154 4.8 11.3 0.00 0.00 0.00 1011.6
20260505024414 -17 246 0.0 3.2 0.00 0.00 0.00 1011.5
20260505023911 -17 188 3.2 12.9 0.00 0.00 0.00 1011.5
20260505023408 -17 209 1.6 3.2 0.00 0.00 0.00 1011.6
20260505022905 -17 166 0.0 4.8 0.00 0.00 0.00 1011.3
20260505022402 -17 211 3.2 9.7 0.00 0.00 0.00 1011.4
20260505021859 -17 191 1.6 4.8 0.00 0.00 0.00 1011.4
20260505021356 -17 197 3.2 8.0 0.00 0.00 0.00 1011.3
20260505020852 -17 208 3.2 8.0 0.00 0.00 0.00 1011.2
20260505020347 -17 185 1.6 3.2 0.00 0.00 0.00 1011.1
20260505015844 -17 243 1.6 9.7 0.00 0.00 0.00 1011.2
20260505015341 -17 227 0.0 6.4 0.00 0.00 0.00 1011.2
20260505014839 -17 228 0.0 8.0 0.00 0.00 0.00 1011.2
20260505014336 -17 189 0.0 3.2 0.00 0.00 0.00 1011.3
20260505013832 -17 177 1.6 4.8 0.00 0.00 0.00 1011.2
20260505013329 -17 154 4.8 9.7 0.00 0.00 0.00 1011.2
20260505012828 -17 222 0.0 8.0 0.00 0.00 0.00 1011.2
20260505012326 -17 200 1.6 4.8 0.00 0.00 0.00 1011.2
20260505011821 -17 208 0.0 3.2 0.00 0.00 0.00 1011.4
20260505011318 -17 186 0.0 3.2 0.00 0.00 0.00 1011.2
20260505010814 -17 141 4.8 6.4 0.00 0.00 0.00 1011.3
20260505010310 -17 200 0.0 4.8 0.00 0.00 0.00 1011.1
20260505005806 -17 237 0.0 4.8 0.00 0.00 0.00 1011.1
20260505005304 -17 129 0.0 6.4 0.00 0.00 0.00 1011.1
20260505004801 -17 229 1.6 6.4 0.00 0.00 0.00 1011.1
20260505004256 -17 215 3.2 4.8 0.00 0.00 0.00 1011.2
20260505003755 -17 229 1.6 6.4 0.00 0.00 0.00 1011.2
20260505003252 -17 195 3.2 8.0 0.00 0.00 0.00 1011.1
20260505002748 -17 335 4.8 6.4 0.00 0.00 0.00 1011.1
20260505002245 -17 154 3.2 4.8 0.00 0.00 0.00 1011.2
20260505001743 -17 204 3.2 8.0 0.00 0.00 0.00 1010.9
20260505001240 -17 204 3.2 9.7 0.00 0.00 0.00 1011.0
20260505000737 -17 157 1.6 8.0 0.00 0.00 0.00 1010.9
20260505000235 -17 224 0.0 9.7 0.00 0.00 0.00 1011.0
20260504235731 -17 175 4.8 11.3 0.00 0.00 0.00 1010.9
20260504235228 -17 222 4.8 6.4 0.00 0.00 0.00 1011.2
20260504234725 -17 223 4.8 8.0 0.00 0.00 0.00 1011.1
20260504234222 -17 243 3.2 9.7 0.00 0.00 0.00 1011.2
20260504233718 -17 149 6.4 6.4 0.00 0.00 0.00 1011.2
20260504233214 -17 220 4.8 6.4 0.00 0.00 0.00 1011.3
20260504232712 -17 116 1.6 12.9 0.00 0.00 0.00 1011.3
20260504232208 -17 233 3.2 6.4 0.00 0.00 0.00 1011.5
20260504231705 -17 222 3.2 17.7 0.00 0.00 0.00 1011.7
20260504231201 -17 148 1.6 4.8 0.00 0.00 0.00 1011.3
20260504230657 -17 272 3.2 8.0 0.00 0.00 0.00 1011.5
20260504230156 -17 240 1.6 11.3 0.00 0.00 0.00 1011.6
20260504225655 -17 209 3.2 4.8 0.00 0.00 0.00 1011.7
20260504225150 -17 131 4.8 6.4 0.00 0.00 0.00 1011.4
20260504224647 -17 213 1.6 6.4 0.00 0.00 0.00 1011.7
20260504224144 -17 238 3.2 8.0 0.00 0.00 0.00 1011.5
20260504223642 -17 204 3.2 3.2 0.00 0.00 0.00 1011.8
20260504223137 -17 138 4.8 8.0 0.00 0.00 0.00 1011.9
20260504222634 -17 203 4.8 6.4 0.00 0.00 0.00 1011.8
20260504222131 -17 200 1.6 8.0 0.00 0.00 0.00 1011.8
20260504221628 -17 199 4.8 14.5 0.00 0.00 0.00 1012.0
20260504221120 -17 207 3.2 9.7 0.00 0.00 0.00 1012.1
20260504220616 -17 214 3.2 9.7 0.00 0.00 0.00 1012.0
20260504220114 -17 159 3.2 9.7 0.00 0.00 0.00 1011.9
20260504215610 -17 205 3.2 4.8 0.00 0.00 0.00 1012.1
20260504215108 -17 215 3.2 6.4 0.00 0.00 0.00 1012.1
20260504214603 -17 226 1.6 6.4 0.00 0.00 0.00 1012.0
20260504214100 -17 210 3.2 14.5 0.00 0.00 0.00 1012.0
20260504213556 -17 255 4.8 8.0 0.00 0.00 0.00 1012.0
20260504213053 -17 232 6.4 9.7 0.00 0.00 0.00 1012.3
20260504212549 -17 237 1.6 8.0 0.00 0.00 0.00 1012.4
20260504212047 -17 234 3.2 6.4 0.00 0.00 0.00 1012.7
20260504211543 -17 250 6.4 11.3 0.00 0.00 0.00 1012.7
20260504211040 -17 269 3.2 4.8 0.00 0.00 0.00 1012.6
20260504210537 -17 230 4.8 6.4 0.00 0.00 0.00 1013.0
20260504210034 -17 214 3.2 4.8 0.00 0.00 0.00 1012.9
20260504205532 -17 201 4.8 6.4 0.00 0.00 0.00 1013.2
20260504205030 -17 207 4.8 11.3 0.00 0.00 0.00 1013.5
20260504204527 -17 208 4.8 8.0 0.00 0.00 0.00 1013.6
20260504204026 -17 212 4.8 6.4 0.00 0.00 0.00 1013.1
20260504203523 -17 238 1.6 8.0 0.00 0.00 0.00 1013.5
20260504203020 -17 219 1.6 6.4 0.00 0.00 0.00 1013.5
20260504202516 -17 255 0.0 8.0 0.00 0.00 0.00 1013.8
20260504202013 -17 234 1.6 6.4 0.00 0.00 0.00 1013.6
20260504201510 -17 216 4.8 8.0 0.00 0.00 0.00 1013.8
20260504201008 -17 251 3.2 6.4 0.00 0.00 0.00 1013.9
20260504200504 -17 160 3.2 9.7 0.00 0.00 0.00 1014.1
20260504200001 -17 212 3.2 14.5 0.00 0.00 0.00 1014.1
20260504195457 -17 98 0.0 8.0 0.00 0.00 0.00 1014.2
20260504194953 -17 213 0.0 6.4 0.00 0.00 0.00 1014.4
20260504194449 -17 199 3.2 8.0 0.00 0.00 0.00 1014.4
20260504193945 -17 224 4.8 11.3 0.00 0.00 0.00 1014.7
20260504193443 -17 196 4.8 6.4 0.00 0.00 0.00 1014.6
20260504192942 -17 149 11.3 14.5 0.00 0.00 0.00 1014.7
20260504192438 -17 147 4.8 14.5 0.00 0.00 0.00 1014.9
20260504191937 -17 95 0.0 12.9 0.00 0.00 0.00 1015.0
20260504191436 -17 220 3.2 14.5 0.00 0.00 0.00 1015.0
20260504190936 -17 218 3.2 8.0 0.00 0.00 0.00 1014.9
20260504190432 -17 191 1.6 4.8 0.00 0.00 0.00 1015.2
20260504185929 -17 189 3.2 16.1 0.00 0.00 0.00 1015.1
20260504185426 -17 208 3.2 11.3 0.00 0.00 0.00 1015.2
20260504184922 -17 221 4.8 6.4 0.00 0.00 0.00 1015.2
20260504184418 -17 225 4.8 8.0 0.00 0.00 0.00 1015.2
20260504183914 -17 225 4.8 9.7 0.00 0.00 0.00 1015.4
20260504183411 -17 163 4.8 9.7 0.00 0.00 0.00 1015.5
20260504182909 -17 239 3.2 8.0 0.00 0.00 0.00 1015.6
20260504182406 -17 214 3.2 9.7 0.00 0.00 0.00 1015.5
20260504181903 -17 172 4.8 14.5 0.00 0.00 0.00 1015.7
20260504181400 -17 224 4.8 6.4 0.00 0.00 0.00 1015.7
20260504180859 -17 236 3.2 11.3 0.00 0.00 0.00 1015.7
20260504180357 -17 216 4.8 9.7 0.00 0.00 0.00 1015.9
20260504175855 -17 222 4.8 14.5 0.00 0.00 0.00 1016.2
20260504175351 -17 217 4.8 4.8 0.00 0.00 0.00 1016.2
20260504174849 -17 217 4.8 6.4 0.00 0.00 0.00 1016.3
20260504174347 -17 216 1.6 14.5 0.00 0.00 0.00 1016.4
20260504173844 -17 261 3.2 4.8 0.00 0.00 0.00 1016.2
20260504173340 -17 226 3.2 9.7 0.00 0.00 0.00 1016.5
20260504172837 -17 221 3.2 9.7 0.00 0.00 0.00 1016.4
20260504172334 -17 165 3.2 11.3 0.00 0.00 0.00 1016.6
20260504171830 -17 256 6.4 11.3 0.00 0.00 0.00 1017.0
20260504171327 -17 237 6.4 8.0 0.00 0.00 0.00 1016.9
20260504170824 -17 199 3.2 12.9 0.00 0.00 0.00 1017.1
20260504170321 -17 264 3.2 8.0 0.00 0.00 0.00 1017.2
20260504160239 -17 225 4.8 9.7 0.00 0.00 0.00 1017.4
20260504150705 -17 172 3.2 12.9 0.00 0.00 0.00 1017.8
20260504150201 -17 193 3.2 8.0 0.00 0.00 0.00 1017.9
20260504141131 -17 142 8.0 12.9 0.00 0.00 0.00 1018.2
20260504140627 -17 230 3.2 14.5 0.00 0.00 0.00 1018.1
20260504140123 -17 212 4.8 8.0 0.00 0.00 0.00 1018.1